When you browse on this site, cookies collect data to enhance your experience and personalize the content and advertising you see.
Visit our Privacy Policy to learn more. By continuing to use the site, you agree to this use of cookies and data.
  • In Czech Republic
  • List of Countries
  • For 7 days
  • Water Temperature
  • Weather Map
  • Weather Widgets
  • user-avatar
    Login

    Hourly Weather Artashat

    Today, 15 September, Sunday

    Time Temperature Precipitation Wind Pressure Humidity
    00:00 +12°C° 0 mm 0 mps 604 mmHg 54%
    01:00 +11°C° 0 mm 0 mps 604 mmHg 55%
    02:00 +11°C° 0 mm 0 mps 603 mmHg 57%
    03:00 +10°C° 0 mm 0 mps 603 mmHg 59%
    04:00 +10°C° 0 mm 0 mps 603 mmHg 61%
    05:00 +10°C° 0 mm 0 mps 603 mmHg 62%
    06:00 +9°C° 0 mm 0 mps 603 mmHg 64%
    07:00 +12°C° 0 mm 1 mps 604 mmHg 57%
    08:00 +14°C° 0 mm 1 mps 604 mmHg 50%
    09:00 +16°C° 0 mm 2 mps 605 mmHg 43%
    10:00 +17°C° 0 mm 2 mps 605 mmHg 40%
    11:00 +18°C° 0 mm 2 mps 605 mmHg 38%
    12:00 +19°C° 0 mm 2 mps 605 mmHg 35%
    13:00 +20°C° 0 mm 2 mps 605 mmHg 34%
    14:00 +21°C° 0 mm 2 mps 605 mmHg 33%
    15:00 +21°C° 0 mm 2 mps 605 mmHg 32%
    16:00 +20°C° 0.2 mm 2 mps 605 mmHg 38%
    17:00 +19°C° 0.2 mm 2 mps 605 mmHg 44%
    18:00 +18°C° 0.2 mm 2 mps 605 mmHg 50%
    19:00 +17°C° 0.3 mm 2 mps 605 mmHg 56%
    20:00 +16°C° 0.3 mm 1 mps 605 mmHg 62%
    21:00 +15°C° 0.3 mm 1 mps 605 mmHg 67%
    22:00 +14°C° 0.3 mm 1 mps 605 mmHg 69%
    23:00 +14°C° 0.3 mm 1 mps 604 mmHg 71%

    Tomorrow, 16 September, Monday

    Time Temperature Precipitation Wind Pressure Humidity
    00:00 +12°C° 0.3 mm 0 mps 604 mmHg 74%
    01:00 +12°C° 0.2 mm 0 mps 604 mmHg 75%
    02:00 +11°C° 0.2 mm 0 mps 604 mmHg 76%
    03:00 +11°C° 0.2 mm 0 mps 603 mmHg 78%
    04:00 +12°C° 0.1 mm 1 mps 603 mmHg 78%
    05:00 +12°C° 0.1 mm 1 mps 603 mmHg 78%
    06:00 +12°C° 0.1 mm 1 mps 603 mmHg 78%
    07:00 +13°C° 0 mm 1 mps 603 mmHg 71%
    08:00 +15°C° 0 mm 2 mps 604 mmHg 65%
    09:00 +16°C° 0 mm 2 mps 604 mmHg 58%
    10:00 +17°C° 0 mm 3 mps 604 mmHg 53%
    11:00 +19°C° 0 mm 3 mps 605 mmHg 48%
    12:00 +20°C° 0 mm 3 mps 605 mmHg 43%
    13:00 +21°C° 0 mm 3 mps 605 mmHg 41%
    14:00 +21°C° 0 mm 3 mps 605 mmHg 40%
    15:00 +22°C° 0 mm 3 mps 605 mmHg 38%
    16:00 +21°C° 0 mm 2 mps 604 mmHg 40%
    17:00 +20°C° 0 mm 2 mps 604 mmHg 42%
    18:00 +21°C° 0 mm 1 mps 604 mmHg 44%
    19:00 +20°C° 0 mm 1 mps 604 mmHg 45%
    20:00 +19°C° 0 mm 1 mps 604 mmHg 45%
    21:00 +18°C° 0 mm 1 mps 604 mmHg 46%
    22:00 +18°C° 0 mm 1 mps 603 mmHg 46%
    23:00 +16°C° 0 mm 1 mps 603 mmHg 46%

    Day after tomorrow, 17 September, Tuesday

    Time Temperature Precipitation Wind Pressure Humidity
    00:00 +16°C° 0 mm 1 mps 603 mmHg 45%
    01:00 +15°C° 0 mm 1 mps 603 mmHg 47%
    02:00 +15°C° 0 mm 1 mps 602 mmHg 50%
    03:00 +14°C° 0 mm 1 mps 602 mmHg 52%
    04:00 +14°C° 0 mm 1 mps 601 mmHg 53%
    05:00 +13°C° 0 mm 1 mps 601 mmHg 55%
    06:00 +12°C° 0 mm 0 mps 601 mmHg 57%
    07:00 +15°C° 0 mm 1 mps 602 mmHg 50%
    08:00 +18°C° 0 mm 1 mps 603 mmHg 43%
    09:00 +20°C° 0 mm 1 mps 604 mmHg 37%
    10:00 +20°C° 0 mm 2 mps 604 mmHg 33%
    11:00 +22°C° 0 mm 3 mps 604 mmHg 29%
    12:00 +24°C° 0 mm 3 mps 604 mmHg 25%
    13:00 +23°C° 0 mm 4 mps 604 mmHg 23%
    14:00 +25°C° 0 mm 5 mps 604 mmHg 21%
    15:00 +24°C° 0 mm 6 mps 603 mmHg 20%
    16:00 +23°C° 0 mm 6 mps 603 mmHg 22%
    17:00 +22°C° 0 mm 5 mps 603 mmHg 25%
    18:00 +21°C° 0 mm 5 mps 602 mmHg 28%
    19:00 +20°C° 0 mm 5 mps 603 mmHg 30%
    20:00 +19°C° 0 mm 4 mps 603 mmHg 33%
    21:00 +18°C° 0 mm 4 mps 603 mmHg 36%
    22:00 +17°C° 0 mm 3 mps 603 mmHg 38%
    23:00 +16°C° 0 mm 3 mps 603 mmHg 41%

    18 September, Wednesday

    Time Temperature Precipitation Wind Pressure Humidity
    00:00 +14°C° 0 mm 3 mps 603 mmHg 43%
    01:00 +15°C° 0 mm 2 mps 603 mmHg 46%
    02:00 +14°C° 0 mm 2 mps 603 mmHg 48%
    03:00 +14°C° 0 mm 2 mps 602 mmHg 51%
    04:00 +13°C° 0 mm 1 mps 602 mmHg 52%
    05:00 +13°C° 0 mm 1 mps 602 mmHg 54%
    06:00 +12°C° 0 mm 1 mps 603 mmHg 56%
    07:00 +14°C° 0 mm 1 mps 604 mmHg 50%
    08:00 +16°C° 0 mm 1 mps 605 mmHg 44%
    09:00 +19°C° 0 mm 1 mps 606 mmHg 38%
    10:00 +20°C° 0 mm 1 mps 606 mmHg 35%
    11:00 +21°C° 0 mm 1 mps 606 mmHg 32%
    12:00 +22°C° 0 mm 1 mps 607 mmHg 30%
    13:00 +22°C° 0 mm 1 mps 606 mmHg 28%
    14:00 +23°C° 0 mm 2 mps 606 mmHg 27%
    15:00 +23°C° 0 mm 2 mps 606 mmHg 26%
    16:00 +21°C° 0 mm 2 mps 606 mmHg 30%
    17:00 +20°C° 0 mm 2 mps 605 mmHg 33%
    18:00 +21°C° 0 mm 1 mps 605 mmHg 37%
    19:00 +20°C° 0 mm 1 mps 605 mmHg 39%
    20:00 +19°C° 0 mm 1 mps 605 mmHg 41%
    21:00 +18°C° 0 mm 1 mps 605 mmHg 44%
    22:00 +16°C° 0 mm 1 mps 605 mmHg 45%
    23:00 +16°C° 0 mm 1 mps 604 mmHg 46%

    19 September, Thursday

    Time Temperature Precipitation Wind Pressure Humidity
    00:00 +14°C° 0 mm 0 mps 604 mmHg 47%
    01:00 +14°C° 0 mm 0 mps 604 mmHg 47%
    02:00 +13°C° 0 mm 0 mps 604 mmHg 48%
    03:00 +13°C° 0 mm 0 mps 603 mmHg 48%
    04:00 +12°C° 0 mm 0 mps 603 mmHg 49%
    05:00 +12°C° 0 mm 0 mps 603 mmHg 50%
    06:00 +11°C° 0 mm 0 mps 602 mmHg 51%
    07:00 +13°C° 0 mm 0 mps 604 mmHg 44%
    08:00 +16°C° 0 mm 0 mps 605 mmHg 38%
    09:00 +20°C° 0 mm 1 mps 606 mmHg 31%
    10:00 +21°C° 0 mm 1 mps 606 mmHg 28%
    11:00 +23°C° 0 mm 1 mps 606 mmHg 25%
    12:00 +24°C° 0 mm 2 mps 606 mmHg 22%
    13:00 +24°C° 0 mm 2 mps 606 mmHg 21%
    14:00 +25°C° 0 mm 2 mps 606 mmHg 20%
    15:00 +25°C° 0 mm 3 mps 606 mmHg 20%
    16:00 +24°C° 0 mm 2 mps 605 mmHg 23%
    17:00 +23°C° 0 mm 2 mps 605 mmHg 26%
    18:00 +20°C° 0 mm 2 mps 604 mmHg 29%
    19:00 +20°C° 0 mm 2 mps 604 mmHg 30%
    20:00 +20°C° 0 mm 1 mps 604 mmHg 31%
    21:00 +19°C° 0 mm 1 mps 604 mmHg 33%
    22:00 +18°C° 0 mm 1 mps 604 mmHg 34%
    23:00 +18°C° 0 mm 1 mps 603 mmHg 35%

    20 September, Friday

    Time Temperature Precipitation Wind Pressure Humidity
    00:00 +16°C° 0 mm 1 mps 603 mmHg 36%
    01:00 +15°C° 0 mm 1 mps 603 mmHg 37%
    02:00 +15°C° 0 mm 1 mps 602 mmHg 37%
    03:00 +14°C° 0 mm 1 mps 602 mmHg 38%
    04:00 +14°C° 0 mm 1 mps 601 mmHg 38%
    05:00 +12°C° 0 mm 0 mps 601 mmHg 38%
    06:00 +12°C° 0 mm 0 mps 601 mmHg 39%
    07:00 +14°C° 0 mm 0 mps 602 mmHg 33%
    08:00 +17°C° 0 mm 0 mps 603 mmHg 28%
    09:00 +19°C° 0 mm 0 mps 604 mmHg 22%
    10:00 +23°C° 0 mm 1 mps 604 mmHg 20%
    11:00 +24°C° 0 mm 1 mps 604 mmHg 17%
    12:00 +26°C° 0 mm 2 mps 604 mmHg 15%
    13:00 +26°C° 0 mm 3 mps 604 mmHg 14%
    14:00 +27°C° 0 mm 4 mps 604 mmHg 13%
    15:00 +27°C° 0 mm 5 mps 603 mmHg 12%
    16:00 +26°C° 0 mm 5 mps 603 mmHg 15%
    17:00 +25°C° 0 mm 5 mps 602 mmHg 17%
    18:00 +22°C° 0 mm 5 mps 602 mmHg 19%
    19:00 +22°C° 0 mm 4 mps 602 mmHg 21%
    20:00 +21°C° 0 mm 3 mps 601 mmHg 23%
    21:00 +20°C° 0 mm 3 mps 601 mmHg 24%
    22:00 +19°C° 0 mm 2 mps 601 mmHg 27%
    23:00 +18°C° 0 mm 2 mps 600 mmHg 30%
    Show more